This demonstration page uses our WeatherBlox Daily Observations layout. Learn more.

40.92945, -100.16068

Hourly Observations for December 9, 2016

Temp ( °F °C ) Dew Point ( °F °C ) Humidity (%) Winds ( mph kmh ) Pressure ( in mb ) Visibility ( mi km ) Precip ( " mm )
12:15 am 00:15 Clear 4 -15.5 -1 -18.6 77 77 Calm 30.8 1043 10 16.0934 N/A
12:35 am 00:35 Clear 4 -15.4 -1 -18.5 77 77 Calm 30.8 1043 10 16.0934 N/A
12:55 am 00:55 Clear 4 -15.7 -1 -18.6 79 79 E 3 6 30.8 1043 10 16.0934 N/A
1:15 am 01:15 Clear 4 -15.5 -1 -18.6 77 77 Calm 30.77 1042 10 16.0934 N/A
1:35 am 01:35 Clear 5 -14.8 0 -18 77 77 Calm 30.77 1042 10 16.0934 N/A
1:55 am 01:55 Clear 4 -15.3 -1 -18.4 77 77 Calm 30.77 1042 10 16.0934 N/A
2:15 am 02:15 Clear 4 -15.8 -2 -18.7 79 79 Calm 30.77 1042 10 16.0934 N/A
2:35 am 02:35 Clear 4 -15.7 -1 -18.5 79 79 Calm 30.77 1042 10 16.0934 N/A
2:55 am 02:55 Clear 4 -15.8 -1 -18.5 80 80 E 3 6 30.74 1041 10 16.0934 N/A
3:15 am 03:15 Clear 4 -15.4 0 -18 81 81 E 3 6 30.74 1041 10 16.0934 N/A
3:35 am 03:35 Clear 6 -14.4 1 -17 81 81 E 3 6 30.71 1040 10 16.0934 N/A
3:55 am 03:55 Clear 7 -14 2 -16.6 81 81 E 6 9 30.68 1039 10 16.0934 N/A
4:15 am 04:15 Clear 7 -13.9 2 -16.6 80 80 SE 3 6 30.68 1039 10 16.0934 N/A
4:35 am 04:35 Clear 8 -13.6 2 -16.5 79 79 Calm 30.68 1039 10 16.0934 N/A
4:55 am 04:55 Clear 7 -14 2 -16.7 80 80 Calm 30.68 1039 10 16.0934 N/A
5:15 am 05:15 Partly Cloudy 7 -14 2 -16.7 80 80 ESE 5 7 30.68 1039 10 16.0934 N/A
5:35 am 05:35 Partly Cloudy 7 -14.1 2 -16.8 80 80 E 3 6 30.68 1039 10 16.0934 N/A
5:55 am 05:55 Mostly Cloudy 8 -13.4 4 -15.7 83 83 ESE 3 6 30.68 1039 10 16.0934 N/A
6:15 am 06:15 Cloudy 10 -12.5 4 -15.3 80 80 SE 6 9 30.62 1037 10 16.0934 N/A
6:35 am 06:35 Cloudy 10 -12 5 -14.9 79 79 SE 7 11 30.62 1037 10 16.0934 N/A
6:55 am 06:55 Cloudy 11 -11.8 5 -14.9 78 78 SE 6 9 30.62 1037 10 16.0934 N/A
7:15 am 07:15 Cloudy 11 -11.4 6 -14.5 78 78 SE 6 9 30.62 1037 10 16.0934 N/A
7:35 am 07:35 Cloudy 13 -10.4 8 -13.4 79 79 SSE 9 15 30.62 1037 10 16.0934 N/A
7:55 am 07:55 Cloudy 15 -9.5 8 -13.4 74 74 SSE 10 17 30.59 1036 10 16.0934 N/A
8:15 am 08:15 Cloudy 15 -9.4 9 -12.9 76 76 SSE 8 13 30.59 1036 10 16.0934 N/A
8:35 am 08:35 Cloudy 15 -9.2 8 -13.1 74 74 SSE 14 22 30.59 1036 10 16.0934 N/A
8:55 am 08:55 Cloudy 16 -9 9 -13 73 73 SSE 15 24 30.59 1036 10 16.0934 N/A
9:15 am 09:15 Cloudy 17 -8.5 9 -12.8 71 71 SSE 12 19 30.59 1036 10 16.0934 N/A
9:35 am 09:35 Cloudy 17 -8.2 9 -12.7 70 70 SSE 15 24 30.59 1036 10 16.0934 N/A
9:55 am 09:55 Cloudy 18 -8 9 -12.9 68 68 SSE 14 22 30.59 1036 10 16.0934 N/A
10:15 am 10:15 Cloudy 18 -7.7 9 -12.7 68 68 SSE 15 24 30.59 1036 10 16.0934 N/A
10:35 am 10:35 Cloudy 19 -7.5 10 -12.5 68 68 SSE 13 20 30.59 1036 10 16.0934 N/A
10:55 am 10:55 Cloudy 19 -7.2 10 -12.5 66 66 SE 14 22 30.56 1035 10 16.0934 N/A
11:15 am 11:15 Cloudy 20 -6.9 10 -12.5 65 65 SSE 16 26 30.56 1035 10 16.0934 N/A
11:35 am 11:35 Cloudy 21 -6.2 10 -12.1 63 63 SSE 14 22 30.53 1034 10 16.0934 N/A
11:55 am 11:55 Cloudy 22 -5.6 10 -12.3 60 60 S 15 24 30.53 1034 10 16.0934 N/A
12:15 pm 12:15 Cloudy 22 -5.5 10 -12.1 60 60 S 17 28 30.5 1033 10 16.0934 N/A
12:35 pm 12:35 Cloudy 22 -5.3 10 -12 60 60 S 18 30 30.5 1033 10 16.0934 N/A
12:55 pm 12:55 Cloudy 23 -5 11 -11.5 61 61 SSE 16 26 30.45 1031 10 16.0934 N/A
1:15 pm 13:15 Cloudy 24 -4.7 12 -11.1 61 61 SSE 15 24 30.45 1031 10 16.0934 N/A
1:35 pm 13:35 Cloudy 24 -4.7 13 -10.7 63 63 SSE 12 19 30.45 1031 10 16.0934 N/A
1:55 pm 13:55 Cloudy 25 -4 13 -10.6 60 60 SSE 13 20 30.45 1031 10 16.0934 N/A
2:15 pm 14:15 Cloudy 25 -3.9 13 -10.5 61 61 S 9 15 30.45 1031 10 16.0934 N/A
2:35 pm 14:35 Cloudy 25 -3.8 13 -10.5 60 60 S 10 17 30.45 1031 10 16.0934 N/A
2:55 pm 14:55 Cloudy 25 -3.7 13 -10.3 61 61 SSE 10 17 30.48 1032 10 16.0934 N/A
3:15 pm 15:15 Cloudy 26 -3.4 14 -10.2 60 60 SSE 8 13 30.48 1032 10 16.0934 N/A
3:35 pm 15:35 Cloudy 26 -3.3 14 -10.1 60 60 SE 7 11 30.48 1032 10 16.0934 N/A
3:55 pm 15:55 Mostly Cloudy 27 -2.6 14 -10 57 57 S 9 15 30.48 1032 10 16.0934 N/A
4:15 pm 16:15 Partly Cloudy 27 -2.6 14 -10.2 56 56 S 8 13 30.48 1032 10 16.0934 N/A
4:35 pm 16:35 Partly Cloudy 27 -2.9 14 -10.2 58 58 S 6 9 30.48 1032 10 16.0934 N/A
4:55 pm 16:55 Sunny 25 -3.7 13 -10.5 60 60 S 7 11 30.48 1032 10 16.0934 N/A
5:15 pm 17:15 Clear 23 -5.2 12 -10.9 65 65 SSE 7 11 30.48 1032 10 16.0934 N/A
5:35 pm 17:35 Clear 22 -5.4 13 -10.5 68 68 ESE 5 7 30.5 1033 10 16.0934 N/A
5:55 pm 17:55 Clear 22 -5.5 13 -10.5 68 68 SE 6 9 30.5 1033 10 16.0934 N/A
6:15 pm 18:15 Clear 22 -5.8 13 -10.7 69 69 ESE 6 9 30.5 1033 10 16.0934 N/A
6:35 pm 18:35 Clear 20 -6.5 13 -10.6 73 73 SE 6 9 30.5 1033 10 16.0934 N/A
6:55 pm 18:55 Partly Cloudy 21 -6.3 13 -10.5 72 72 ESE 6 9 30.5 1033 10 16.0934 N/A
7:15 pm 19:15 Clear 20 -6.8 13 -10.7 74 74 SE 6 9 30.5 1033 10 16.0934 N/A
7:35 pm 19:35 Clear 19 -7.1 12 -10.9 75 75 SE 7 11 30.5 1033 10 16.0934 N/A
7:55 pm 19:55 Partly Cloudy 18 -7.6 12 -11.1 76 76 SE 7 11 30.5 1033 10 16.0934 N/A
8:15 pm 20:15 Mostly Cloudy 19 -7.5 12 -11.1 76 76 SE 8 13 30.5 1033 10 16.0934 N/A
8:35 pm 20:35 Partly Cloudy 18 -7.8 11 -11.4 76 76 SE 8 13 30.5 1033 10 16.0934 N/A
8:55 pm 20:55 Clear 18 -7.7 11 -11.4 75 75 SE 8 13 30.5 1033 10 16.0934 N/A
9:15 pm 21:15 Clear 17 -8.1 11 -11.5 77 77 SE 6 9 30.53 1034 10 16.0934 N/A
9:35 pm 21:35 Clear 16 -8.7 11 -11.6 80 80 ESE 7 11 30.53 1034 10 16.0934 N/A
9:55 pm 21:55 Clear 17 -8.6 11 -11.7 79 79 E 6 9 30.53 1034 10 16.0934 N/A
10:15 pm 22:15 Clear 16 -9 10 -12 79 79 ESE 5 7 30.53 1034 10 16.0934 N/A
10:35 pm 22:35 Clear 15 -9.6 10 -12.1 82 82 ESE 6 9 30.53 1034 10 16.0934 N/A
10:55 pm 22:55 Clear 15 -9.4 10 -12 82 82 ESE 7 11 30.53 1034 10 16.0934 N/A
11:15 pm 23:15 Partly Cloudy 15 -9.5 10 -12 82 82 ESE 6 9 30.53 1034 10 16.0934 N/A
11:35 pm 23:35 Partly Cloudy 14 -10.2 9 -12.6 83 83 E 5 7 30.53 1034 10 16.0934 N/A
11:55 pm 23:55 Clear 13 -10.7 9 -12.8 85 85 ESE 3 6 30.53 1034 10 16.0934 N/A

Powered by AerisWeather